,,,PA_Meas_PMT16A,,PR_Meas_QMR101_102,,RH_Meas_QMH101,,SR_Meas_QMS101,,TA_Meas_QMH101,,GenWind,,GenWind,
date,time,status,PA,status,PR,status,RH,status,SR,status,TA,status,DirAvg,status,SpdAvg,
2012-06-19, 00:00:04,VALID,1010.32,VALID,0,VALID,104,VALID,0.112112,VALID,24.2378,VALID,211,VALID,0,
2012-06-19, 00:01:04,VALID,1010.32,VALID,0,VALID,104,VALID,0,VALID,24.2396,VALID,211,VALID,0,
2012-06-19, 00:02:04,VALID,1010.31,VALID,0,VALID,104,VALID,0,VALID,24.1988,VALID,211,VALID,0,
2012-06-19, 00:03:04,VALID,1010.32,VALID,0,VALID,104,VALID,0,VALID,24.2007,VALID,211,VALID,0,
2012-06-19, 00:04:04,VALID,1010.32,VALID,0,VALID,104,VALID,0,VALID,24.1988,VALID,211,VALID,0.401563,
2012-06-19, 00:05:04,VALID,1010.3,VALID,0,VALID,104,VALID,0,VALID,24.2396,VALID,211,VALID,0.320703,
2012-06-19, 00:06:04,VALID,1010.32,VALID,0,VALID,104,VALID,0.112112,VALID,24.2007,VALID,211,VALID,0.340234,
2012-06-19, 00:07:04,VALID,1010.29,VALID,0,VALID,104,VALID,0,VALID,24.1793,VALID,211,VALID,0.283203,
2012-06-19, 00:08:04,VALID,1010.27,VALID,0,VALID,104,VALID,0,VALID,24.2007,VALID,211,VALID,0.00429688,
2012-06-19, 00:09:04,VALID,1010.26,VALID,0,VALID,104,VALID,0,VALID,24.1617,VALID,211,VALID,0,
2012-06-19, 00:10:04,VALID,1010.25,VALID,0,VALID,104,VALID,0,VALID,24.1422,VALID,211,VALID,0,
2012-06-19, 00:11:04,VALID,1010.25,VALID,0,VALID,104,VALID,0,VALID,24.0624,VALID,211,VALID,0,
2012-06-19, 00:12:04,VALID,1010.26,VALID,0,VALID,104,VALID,0.112112,VALID,24.0235,VALID,211,VALID,0,
2012-06-19, 00:13:04,VALID,1010.26,VALID,0,VALID,104,VALID,0,VALID,24.0058,VALID,211,VALID,0,
2012-06-19, 00:14:04,VALID,1010.27,VALID,0,VALID,104,VALID,0.112112,VALID,23.965,VALID,211,VALID,0,
2012-06-19, 00:15:04,VALID,1010.26,VALID,0,VALID,104,VALID,0,VALID,23.9455,VALID,211,VALID,0,
2012-06-19, 00:16:04,VALID,1010.26,VALID,0,VALID,104,VALID,0,VALID,23.9065,VALID,211,VALID,0,
2012-06-19, 00:17:04,VALID,1010.27,VALID,0,VALID,104,VALID,0,VALID,23.9065,VALID,211,VALID,0,
2012-06-19, 00:18:04,VALID,1010.28,VALID,0,VALID,104,VALID,0,VALID,23.926,VALID,211,VALID,0,
2012-06-19, 00:19:04,VALID,1010.24,VALID,0,VALID,104,VALID,0.112112,VALID,23.9455,VALID,211,VALID,0,
2012-06-19, 00:20:04,VALID,1010.24,VALID,0,VALID,104,VALID,0,VALID,23.926,VALID,211,VALID,0,
2012-06-19, 00:21:04,VALID,1010.25,VALID,0,VALID,104,VALID,0,VALID,23.926,VALID,211,VALID,0,
2012-06-19, 00:22:04,VALID,1010.23,VALID,0,VALID,104,VALID,0,VALID,23.9455,VALID,211,VALID,0.394141,
2012-06-19, 00:23:04,VALID,1010.24,VALID,0,VALID,104,VALID,0,VALID,23.9668,VALID,211,VALID,0.402344,
2012-06-19, 00:24:04,VALID,1010.24,VALID,0,VALID,104,VALID,0,VALID,23.9668,VALID,211,VALID,0.24375,
2012-06-19, 00:25:04,VALID,1010.25,VALID,0,VALID,104,VALID,0.112112,VALID,23.9863,VALID,211,VALID,0.0398437,
2012-06-19, 00:26:04,VALID,1010.25,VALID,0,VALID,104,VALID,0.112112,VALID,23.926,VALID,211,VALID,0,
2012-06-19, 00:27:04,VALID,1010.24,VALID,0,VALID,104,VALID,0,VALID,23.9065,VALID,211,VALID,0,
2012-06-19, 00:28:04,VALID,1010.23,VALID,0,VALID,104,VALID,0,VALID,23.8676,VALID,211,VALID,0,
2012-06-19, 00:29:04,VALID,1010.24,VALID,0,VALID,104,VALID,0.112112,VALID,23.8676,VALID,211,VALID,0,
2012-06-19, 00:30:04,VALID,1010.25,VALID,0,VALID,104,VALID,0.112112,VALID,23.8676,VALID,211,VALID,0,
2012-06-19, 00:31:04,VALID,1010.24,VALID,0,VALID,104,VALID,0,VALID,23.8676,VALID,211,VALID,0,
2012-06-19, 00:32:04,VALID,1010.23,VALID,0,VALID,104,VALID,0,VALID,23.8481,VALID,211,VALID,0,
2012-06-19, 00:33:04,VALID,1010.23,VALID,0,VALID,104,VALID,0,VALID,23.8481,VALID,211,VALID,0,
2012-06-19, 00:34:04,VALID,1010.22,VALID,0,VALID,104,VALID,0.112112,VALID,23.8694,VALID,211,VALID,0,
2012-06-19, 00:35:04,VALID,1010.24,VALID,0,VALID,104,VALID,0,VALID,23.8676,VALID,211,VALID,0,
2012-06-19, 00:36:04,VALID,1010.2,VALID,0,VALID,104,VALID,0.112112,VALID,23.8481,VALID,211,VALID,0,
2012-06-19, 00:37:04,VALID,1010.19,VALID,0,VALID,104,VALID,0,VALID,23.8481,VALID,211,VALID,0,
2012-06-19, 00:38:04,VALID,1010.21,VALID,0,VALID,104,VALID,0.112112,VALID,23.8481,VALID,211,VALID,0,
2012-06-19, 00:39:04,VALID,1010.17,VALID,0,VALID,104,VALID,0,VALID,23.8091,VALID,211,VALID,0,
2012-06-19, 00:40:04,VALID,1010.17,VALID,0,VALID,104,VALID,0,VALID,23.8109,VALID,211,VALID,0,
2012-06-19, 00:41:04,VALID,1010.17,VALID,0,VALID,104,VALID,0,VALID,23.7701,VALID,211,VALID,0,
2012-06-19, 00:42:04,VALID,1010.17,VALID,0,VALID,104,VALID,0,VALID,23.7914,VALID,211,VALID,0,
2012-06-19, 00:43:04,VALID,1010.15,VALID,0,VALID,104,VALID,0.112112,VALID,23.8109,VALID,211,VALID,0,
2012-06-19, 00:44:04,VALID,1010.14,VALID,0,VALID,104,VALID,0.112112,VALID,23.8499,VALID,211,VALID,0,
2012-06-19, 00:45:04,VALID,1010.15,VALID,0,VALID,104,VALID,0.112112,VALID,23.8889,VALID,211,VALID,0,
2012-06-19, 00:46:04,VALID,1010.16,VALID,0,VALID,104,VALID,0,VALID,23.8694,VALID,211,VALID,0,
2012-06-19, 00:47:04,VALID,1010.16,VALID,0,VALID,104,VALID,0.112112,VALID,23.8694,VALID,211,VALID,0,
2012-06-19, 00:48:04,VALID,1010.18,VALID,0,VALID,104,VALID,0,VALID,23.8499,VALID,211,VALID,0,
2012-06-19, 00:49:04,VALID,1010.17,VALID,0,VALID,104,VALID,0,VALID,23.8499,VALID,211,VALID,0,
2012-06-19, 00:50:04,VALID,1010.16,VALID,0,VALID,104,VALID,0,VALID,23.8304,VALID,211,VALID,0,
2012-06-19, 00:51:04,VALID,1010.16,VALID,0,VALID,104,VALID,0,VALID,23.8694,VALID,211,VALID,0,
2012-06-19, 00:52:04,VALID,1010.14,VALID,0,VALID,104,VALID,0,VALID,23.9084,VALID,211,VALID,0,
2012-06-19, 00:53:04,VALID,1010.12,VALID,0,VALID,104,VALID,0,VALID,23.8889,VALID,211,VALID,0,
2012-06-19, 00:54:04,VALID,1010.09,VALID,0,VALID,104,VALID,0,VALID,23.8871,VALID,211,VALID,0,
2012-06-19, 00:55:04,VALID,1010.09,VALID,0,VALID,104,VALID,0,VALID,23.8676,VALID,211,VALID,0,
2012-06-19, 00:56:04,VALID,1010.06,VALID,0,VALID,104,VALID,0,VALID,23.8694,VALID,211,VALID,0,
2012-06-19, 00:57:04,VALID,1010.04,VALID,0,VALID,104,VALID,0,VALID,23.8694,VALID,211,VALID,0,
2012-06-19, 00:58:04,VALID,1010.01,VALID,0,VALID,104,VALID,0,VALID,23.8304,VALID,211,VALID,0,
2012-06-19, 00:59:04,VALID,1009.98,VALID,0,VALID,104,VALID,0.112112,VALID,23.8109,VALID,211,VALID,0,
2012-06-19, 01:00:04,VALID,1009.98,VALID,0,VALID,104,VALID,0.112112,VALID,23.7701,VALID,211,VALID,0,
2012-06-19, 01:01:04,VALID,1009.94,VALID,0,VALID,104,VALID,0,VALID,23.772,VALID,211,VALID,0,
2012-06-19, 01:02:04,VALID,1009.96,VALID,0,VALID,104,VALID,0,VALID,23.7525,VALID,211,VALID,0,
2012-06-19, 01:03:04,VALID,1009.94,VALID,0,VALID,104,VALID,0,VALID,23.772,VALID,211,VALID,0,
2012-06-19, 01:04:04,VALID,1009.9,VALID,0,VALID,104,VALID,0,VALID,23.7507,VALID,211,VALID,0,
2012-06-19, 01:05:04,VALID,1009.9,VALID,0,VALID,104,VALID,0,VALID,23.7701,VALID,211,VALID,0,
2012-06-19, 01:06:04,VALID,1009.9,VALID,0,VALID,104,VALID,0,VALID,23.772,VALID,211,VALID,0,
2012-06-19, 01:07:04,VALID,1009.88,VALID,0,VALID,104,VALID,0,VALID,23.7525,VALID,211,VALID,0,
2012-06-19, 01:08:04,VALID,1009.88,VALID,0,VALID,104,VALID,0,VALID,23.694,VALID,211,VALID,0,
2012-06-19, 01:09:04,VALID,1009.88,VALID,0,VALID,104,VALID,0,VALID,23.6745,VALID,211,VALID,0,
2012-06-19, 01:10:04,VALID,1009.84,VALID,0,VALID,104,VALID,0,VALID,23.6727,VALID,211,VALID,0,
2012-06-19, 01:11:04,VALID,1009.84,VALID,0,VALID,104,VALID,0.112112,VALID,23.6922,VALID,211,VALID,0,
2012-06-19, 01:12:04,VALID,1009.83,VALID,0,VALID,104,VALID,0,VALID,23.7135,VALID,211,VALID,0,
2012-06-19, 01:13:04,VALID,1009.81,VALID,0,VALID,104,VALID,0,VALID,23.733,VALID,211,VALID,0,
2012-06-19, 01:14:04,VALID,1009.8,VALID,0,VALID,104,VALID,0,VALID,23.7507,VALID,211,VALID,0,
2012-06-19, 01:15:04,VALID,1009.78,VALID,0,VALID,104,VALID,0,VALID,23.7701,VALID,211,VALID,0,
2012-06-19, 01:16:04,VALID,1009.77,VALID,0,VALID,104,VALID,0,VALID,23.8109,VALID,211,VALID,0,
2012-06-19, 01:17:04,VALID,1009.76,VALID,0,VALID,104,VALID,0,VALID,23.772,VALID,211,VALID,0,
2012-06-19, 01:18:04,VALID,1009.78,VALID,0,VALID,104,VALID,0,VALID,23.7135,VALID,211,VALID,0,
2012-06-19, 01:19:04,VALID,1009.74,VALID,0,VALID,104,VALID,0,VALID,23.6532,VALID,211,VALID,0,
2012-06-19, 01:20:04,VALID,1009.77,VALID,0,VALID,104,VALID,0,VALID,23.6338,VALID,211,VALID,0,
2012-06-19, 01:21:04,VALID,1009.74,VALID,0,VALID,104,VALID,0.112112,VALID,23.6356,VALID,211,VALID,0,
2012-06-19, 01:22:04,VALID,1009.75,VALID,0,VALID,104,VALID,0.112112,VALID,23.5948,VALID,211,VALID,0,
2012-06-19, 01:23:04,VALID,1009.75,VALID,0,VALID,104,VALID,0,VALID,23.5966,VALID,211,VALID,0,
2012-06-19, 01:24:04,VALID,1009.74,VALID,0,VALID,104,VALID,0,VALID,23.5558,VALID,211,VALID,0,
2012-06-19, 01:25:04,VALID,1009.76,VALID,0,VALID,104,VALID,0,VALID,23.5576,VALID,211,VALID,0,
2012-06-19, 01:26:04,VALID,1009.77,VALID,0,VALID,104,VALID,0,VALID,23.5966,VALID,211,VALID,0,
2012-06-19, 01:27:04,VALID,1009.76,VALID,0,VALID,104,VALID,0.112112,VALID,23.5558,VALID,211,VALID,0,
2012-06-19, 01:28:04,VALID,1009.76,VALID,0,VALID,104,VALID,0,VALID,23.5381,VALID,211,VALID,0,
2012-06-19, 01:29:04,VALID,1009.75,VALID,0,VALID,104,VALID,0,VALID,23.4797,VALID,211,VALID,0,
2012-06-19, 01:30:04,VALID,1009.71,VALID,0,VALID,104,VALID,0.112112,VALID,23.4389,VALID,211,VALID,0,
2012-06-19, 01:31:04,VALID,1009.73,VALID,0,VALID,104,VALID,0,VALID,23.4407,VALID,211,VALID,0,
2012-06-19, 01:32:04,VALID,1009.73,VALID,0,VALID,104,VALID,0,VALID,23.4407,VALID,211,VALID,0,
2012-06-19, 01:33:04,VALID,1009.73,VALID,0,VALID,104,VALID,0,VALID,23.4194,VALID,211,VALID,0,
2012-06-19, 01:34:04,VALID,1009.7,VALID,0,VALID,104,VALID,0.112112,VALID,23.4602,VALID,211,VALID,0,
2012-06-19, 01:35:04,VALID,1009.72,VALID,0,VALID,104,VALID,0,VALID,23.4389,VALID,211,VALID,0,
2012-06-19, 01:36:04,VALID,1009.7,VALID,0,VALID,104,VALID,0.112112,VALID,23.4389,VALID,211,VALID,0,
2012-06-19, 01:37:04,VALID,1009.71,VALID,0,VALID,104,VALID,0,VALID,23.4584,VALID,211,VALID,0,
2012-06-19, 01:38:04,VALID,1009.73,VALID,0,VALID,104,VALID,0,VALID,23.4797,VALID,211,VALID,0,
2012-06-19, 01:39:04,VALID,1009.74,VALID,0,VALID,104,VALID,0,VALID,23.4992,VALID,211,VALID,0,
2012-06-19, 01:40:04,VALID,1009.73,VALID,0,VALID,104,VALID,0,VALID,23.4974,VALID,211,VALID,0,
2012-06-19, 01:41:04,VALID,1009.73,VALID,0,VALID,104,VALID,0.112112,VALID,23.4974,VALID,211,VALID,0,
2012-06-19, 01:42:04,VALID,1009.75,VALID,0,VALID,104,VALID,0.112112,VALID,23.5186,VALID,211,VALID,0,
2012-06-19, 01:43:04,VALID,1009.73,VALID,0,VALID,104,VALID,0,VALID,23.4974,VALID,211,VALID,0,
2012-06-19, 01:44:04,VALID,1009.72,VALID,0,VALID,104,VALID,0.112112,VALID,23.5186,VALID,211,VALID,0,
2012-06-19, 01:45:04,VALID,1009.72,VALID,0,VALID,104,VALID,0,VALID,23.4974,VALID,211,VALID,0,
2012-06-19, 01:46:04,VALID,1009.74,VALID,0,VALID,104,VALID,0.112112,VALID,23.4974,VALID,211,VALID,0,
2012-06-19, 01:47:04,VALID,1009.72,VALID,0,VALID,104,VALID,0.112112,VALID,23.4974,VALID,211,VALID,0,
2012-06-19, 01:48:04,VALID,1009.73,VALID,0,VALID,104,VALID,0,VALID,23.5186,VALID,211,VALID,0,
2012-06-19, 01:49:04,VALID,1009.72,VALID,0,VALID,104,VALID,0,VALID,23.4974,VALID,211,VALID,0,
2012-06-19, 01:50:04,VALID,1009.74,VALID,0,VALID,104,VALID,0.112112,VALID,23.4974,VALID,211,VALID,0,
2012-06-19, 01:51:04,VALID,1009.75,VALID,0,VALID,104,VALID,0.112112,VALID,23.4974,VALID,211,VALID,0,
2012-06-19, 01:52:04,VALID,1009.76,VALID,0,VALID,104,VALID,0.112112,VALID,23.5363,VALID,211,VALID,0,
2012-06-19, 01:53:04,VALID,1009.77,VALID,0,VALID,104,VALID,0,VALID,23.5363,VALID,211,VALID,0,
2012-06-19, 01:54:04,VALID,1009.75,VALID,0,VALID,104,VALID,0.112112,VALID,23.5169,VALID,211,VALID,0,
2012-06-19, 01:55:04,VALID,1009.77,VALID,0,VALID,104,VALID,0,VALID,23.5363,VALID,211,VALID,0,
2012-06-19, 01:56:04,VALID,1009.75,VALID,0,VALID,104,VALID,0.112112,VALID,23.5363,VALID,211,VALID,0,
2012-06-19, 01:57:04,VALID,1009.74,VALID,0,VALID,104,VALID,0,VALID,23.5558,VALID,211,VALID,0,
2012-06-19, 01:58:04,VALID,1009.73,VALID,0,VALID,104,VALID,0,VALID,23.5753,VALID,211,VALID,0,
2012-06-19, 01:59:04,VALID,1009.74,VALID,0,VALID,104,VALID,0.112112,VALID,23.5558,VALID,211,VALID,0,
2012-06-19, 02:00:04,VALID,1009.74,VALID,0,VALID,104,VALID,0.112112,VALID,23.5363,VALID,211,VALID,0,
2012-06-19, 02:01:04,VALID,1009.74,VALID,0,VALID,104,VALID,0.112112,VALID,23.5169,VALID,211,VALID,0,
2012-06-19, 02:02:04,VALID,1009.71,VALID,0,VALID,104,VALID,0.112112,VALID,23.4974,VALID,211,VALID,0,
2012-06-19, 02:03:04,VALID,1009.72,VALID,0,VALID,104,VALID,0.112112,VALID,23.4974,VALID,211,VALID,0,
2012-06-19, 02:04:04,VALID,1009.74,VALID,0,VALID,104,VALID,0.112112,VALID,23.5363,VALID,211,VALID,0,
2012-06-19, 02:05:04,VALID,1009.72,VALID,0,VALID,104,VALID,0.112112,VALID,23.5363,VALID,211,VALID,0,
2012-06-19, 02:06:04,VALID,1009.75,VALID,0,VALID,104,VALID,0.112112,VALID,23.5771,VALID,211,VALID,0,
2012-06-19, 02:07:04,VALID,1009.75,VALID,0,VALID,104,VALID,0.112112,VALID,23.5771,VALID,211,VALID,0,
2012-06-19, 02:08:04,VALID,1009.73,VALID,0,VALID,104,VALID,0.112112,VALID,23.5771,VALID,211,VALID,0,
2012-06-19, 02:09:04,VALID,1009.73,VALID,0,VALID,104,VALID,0,VALID,23.5381,VALID,211,VALID,0,
2012-06-19, 02:10:04,VALID,1009.7,VALID,0,VALID,104,VALID,0,VALID,23.4992,VALID,211,VALID,0,
2012-06-19, 02:11:04,VALID,1009.68,VALID,0,VALID,104,VALID,0,VALID,23.4602,VALID,211,VALID,0,
2012-06-19, 02:12:04,VALID,1009.65,VALID,0,VALID,104,VALID,0,VALID,23.4017,VALID,211,VALID,0,
2012-06-19, 02:13:04,VALID,1009.64,VALID,0,VALID,104,VALID,0,VALID,23.384,VALID,211,VALID,0,
2012-06-19, 02:14:04,VALID,1009.62,VALID,0,VALID,104,VALID,0,VALID,23.3433,VALID,211,VALID,0,
2012-06-19, 02:15:04,VALID,1009.58,VALID,0,VALID,104,VALID,0,VALID,23.3043,VALID,211,VALID,0,
2012-06-19, 02:16:04,VALID,1009.58,VALID,0,VALID,104,VALID,0,VALID,23.3043,VALID,211,VALID,0,
2012-06-19, 02:17:04,VALID,1009.56,VALID,0,VALID,104,VALID,0,VALID,23.3043,VALID,211,VALID,0,
2012-06-19, 02:18:04,VALID,1009.53,VALID,0,VALID,104,VALID,0,VALID,23.3256,VALID,211,VALID,0,
2012-06-19, 02:19:04,VALID,1009.51,VALID,0,VALID,104,VALID,0,VALID,23.2848,VALID,211,VALID,0,
2012-06-19, 02:20:04,VALID,1009.49,VALID,0,VALID,104,VALID,0,VALID,23.2654,VALID,211,VALID,0,
2012-06-19, 02:21:04,VALID,1009.47,VALID,0,VALID,104,VALID,0,VALID,23.3451,VALID,211,VALID,0,
2012-06-19, 02:22:04,VALID,1009.45,VALID,0,VALID,104,VALID,0.112112,VALID,23.361,VALID,211,VALID,0,
2012-06-19, 02:23:04,VALID,1009.44,VALID,0,VALID,104,VALID,0.112112,VALID,23.4,VALID,211,VALID,0,
2012-06-19, 02:24:04,VALID,1009.42,VALID,0,VALID,104,VALID,0,VALID,23.4017,VALID,211,VALID,0,
2012-06-19, 02:25:04,VALID,1009.41,VALID,0,VALID,104,VALID,0.112112,VALID,23.4212,VALID,211,VALID,0,
2012-06-19, 02:26:04,VALID,1009.38,VALID,0,VALID,104,VALID,0,VALID,23.4194,VALID,211,VALID,0,
2012-06-19, 02:27:04,VALID,1009.38,VALID,0,VALID,104,VALID,0,VALID,23.4602,VALID,211,VALID,0,
2012-06-19, 02:28:04,VALID,1009.37,VALID,0,VALID,104,VALID,0,VALID,23.4797,VALID,211,VALID,0,
2012-06-19, 02:29:04,VALID,1009.35,VALID,0,VALID,104,VALID,0,VALID,23.4584,VALID,211,VALID,0,
2012-06-19, 02:30:04,VALID,1009.35,VALID,0,VALID,104,VALID,0,VALID,23.4194,VALID,211,VALID,0,
2012-06-19, 02:31:04,VALID,1009.34,VALID,0,VALID,104,VALID,0,VALID,23.4212,VALID,211,VALID,0,
2012-06-19, 02:32:04,VALID,1009.3,VALID,0,VALID,104,VALID,0,VALID,23.3805,VALID,211,VALID,0,
2012-06-19, 02:33:04,VALID,1009.27,VALID,0,VALID,104,VALID,0.112112,VALID,23.4017,VALID,211,VALID,0,
2012-06-19, 02:34:04,VALID,1009.27,VALID,0,VALID,104,VALID,0,VALID,23.3805,VALID,211,VALID,0,
2012-06-19, 02:35:04,VALID,1009.25,VALID,0,VALID,104,VALID,0,VALID,23.4017,VALID,211,VALID,0,
2012-06-19, 02:36:04,VALID,1009.26,VALID,0,VALID,104,VALID,0,VALID,23.4212,VALID,211,VALID,0,
2012-06-19, 02:37:04,VALID,1009.24,VALID,0,VALID,104,VALID,0,VALID,23.3805,VALID,211,VALID,0,
2012-06-19, 02:38:04,VALID,1009.24,VALID,0,VALID,104,VALID,0.112112,VALID,23.361,VALID,211,VALID,0,
2012-06-19, 02:39:04,VALID,1009.23,VALID,0,VALID,104,VALID,0,VALID,23.3238,VALID,211,VALID,0,
2012-06-19, 02:40:04,VALID,1009.26,VALID,0,VALID,104,VALID,0,VALID,23.3256,VALID,211,VALID,0,
2012-06-19, 02:41:04,VALID,1009.26,VALID,0,VALID,104,VALID,0,VALID,23.2848,VALID,211,VALID,0,
2012-06-19, 02:42:04,VALID,1009.26,VALID,0,VALID,104,VALID,0,VALID,23.2459,VALID,211,VALID,0,
2012-06-19, 02:43:04,VALID,1009.25,VALID,0,VALID,104,VALID,0,VALID,23.2264,VALID,211,VALID,0,
2012-06-19, 02:44:04,VALID,1009.26,VALID,0,VALID,104,VALID,0,VALID,23.2087,VALID,211,VALID,0,
2012-06-19, 02:45:04,VALID,1009.25,VALID,0,VALID,104,VALID,0,VALID,23.2087,VALID,211,VALID,0,
2012-06-19, 02:46:04,VALID,1009.24,VALID,0,VALID,104,VALID,0,VALID,23.2282,VALID,211,VALID,0,
2012-06-19, 02:47:04,VALID,1009.25,VALID,0,VALID,104,VALID,0,VALID,23.2282,VALID,211,VALID,0,
2012-06-19, 02:48:04,VALID,1009.23,VALID,0,VALID,104,VALID,0,VALID,23.2476,VALID,211,VALID,0,
2012-06-19, 02:49:04,VALID,1009.23,VALID,0,VALID,104,VALID,0,VALID,23.2476,VALID,211,VALID,0,
2012-06-19, 02:50:04,VALID,1009.23,VALID,0,VALID,104,VALID,0,VALID,23.2671,VALID,211,VALID,0,
2012-06-19, 02:51:04,VALID,1009.24,VALID,0,VALID,104,VALID,0,VALID,23.2264,VALID,211,VALID,0,
2012-06-19, 02:52:04,VALID,1009.24,VALID,0,VALID,104,VALID,0,VALID,23.2866,VALID,211,VALID,0,
2012-06-19, 02:53:04,VALID,1009.24,VALID,0,VALID,104,VALID,0,VALID,23.2459,VALID,211,VALID,0,
2012-06-19, 02:54:04,VALID,1009.25,VALID,0,VALID,104,VALID,0,VALID,23.2264,VALID,211,VALID,0,
2012-06-19, 02:55:04,VALID,1009.22,VALID,0,VALID,104,VALID,0,VALID,23.2069,VALID,211,VALID,0,
2012-06-19, 02:56:04,VALID,1009.2,VALID,0,VALID,104,VALID,0,VALID,23.1874,VALID,211,VALID,0,
2012-06-19, 02:57:04,VALID,1009.2,VALID,0,VALID,104,VALID,0,VALID,23.129,VALID,211,VALID,0,
2012-06-19, 02:58:04,VALID,1009.17,VALID,0,VALID,104,VALID,0,VALID,23.0705,VALID,211,VALID,0,
2012-06-19, 02:59:04,VALID,1009.19,VALID,0,VALID,104,VALID,0,VALID,23.0121,VALID,211,VALID,0,
2012-06-19, 03:00:04,VALID,1009.17,VALID,0,VALID,104,VALID,0,VALID,22.9926,VALID,211,VALID,0,
2012-06-19, 03:01:04,VALID,1009.18,VALID,0,VALID,104,VALID,0,VALID,22.9731,VALID,211,VALID,0,
2012-06-19, 03:02:04,VALID,1009.21,VALID,0,VALID,104,VALID,0,VALID,22.9731,VALID,211,VALID,0,
2012-06-19, 03:03:04,VALID,1009.22,VALID,0,VALID,104,VALID,0,VALID,22.9342,VALID,211,VALID,0,
2012-06-19, 03:04:04,VALID,1009.21,VALID,0,VALID,104,VALID,0,VALID,22.9342,VALID,211,VALID,0,
2012-06-19, 03:05:04,VALID,1009.25,VALID,0,VALID,104,VALID,0,VALID,22.9342,VALID,211,VALID,0,
2012-06-19, 03:06:04,VALID,1009.25,VALID,0,VALID,104,VALID,0,VALID,22.9147,VALID,211,VALID,0,
2012-06-19, 03:07:04,VALID,1009.24,VALID,0,VALID,104,VALID,0,VALID,22.9554,VALID,211,VALID,0,
2012-06-19, 03:08:04,VALID,1009.23,VALID,0,VALID,104,VALID,0,VALID,22.9554,VALID,211,VALID,0,
2012-06-19, 03:09:04,VALID,1009.23,VALID,0,VALID,104,VALID,0,VALID,22.9749,VALID,211,VALID,0,
2012-06-19, 03:10:04,VALID,1009.24,VALID,0,VALID,104,VALID,0,VALID,22.9943,VALID,211,VALID,0,
2012-06-19, 03:11:04,VALID,1009.22,VALID,0,VALID,104,VALID,0,VALID,22.9926,VALID,211,VALID,0,
2012-06-19, 03:12:04,VALID,1009.23,VALID,0,VALID,104,VALID,0,VALID,23.0121,VALID,211,VALID,0,
2012-06-19, 03:13:04,VALID,1009.24,VALID,0,VALID,104,VALID,0,VALID,23.0723,VALID,211,VALID,0,
2012-06-19, 03:14:04,VALID,1009.24,VALID,0,VALID,104,VALID,0,VALID,23.0918,VALID,211,VALID,0,
2012-06-19, 03:15:04,VALID,1009.22,VALID,0,VALID,104,VALID,0,VALID,23.0918,VALID,211,VALID,0,
2012-06-19, 03:16:04,VALID,1009.19,VALID,0,VALID,104,VALID,0,VALID,23.0918,VALID,211,VALID,0,
2012-06-19, 03:17:04,VALID,1009.18,VALID,0,VALID,104,VALID,0,VALID,23.0528,VALID,211,VALID,0,
2012-06-19, 03:18:04,VALID,1009.17,VALID,0,VALID,104,VALID,0,VALID,23.0528,VALID,211,VALID,0,
2012-06-19, 03:19:04,VALID,1009.19,VALID,0,VALID,104,VALID,0,VALID,23.0138,VALID,211,VALID,0,
2012-06-19, 03:20:04,VALID,1009.2,VALID,0,VALID,104,VALID,0,VALID,23.0138,VALID,211,VALID,0,
2012-06-19, 03:21:04,VALID,1009.21,VALID,0,VALID,104,VALID,0,VALID,23.0138,VALID,211,VALID,0,
2012-06-19, 03:22:04,VALID,1009.21,VALID,0,VALID,104,VALID,0,VALID,22.9749,VALID,211,VALID,0,
2012-06-19, 03:23:04,VALID,1009.22,VALID,0,VALID,104,VALID,0,VALID,22.9342,VALID,211,VALID,0,
2012-06-19, 03:24:04,VALID,1009.24,VALID,0,VALID,104,VALID,0,VALID,22.8935,VALID,211,VALID,0,
2012-06-19, 03:25:04,VALID,1009.22,VALID,0,VALID,104,VALID,0,VALID,22.8935,VALID,211,VALID,0,
2012-06-19, 03:26:04,VALID,1009.25,VALID,0,VALID,104,VALID,0,VALID,22.9147,VALID,211,VALID,0,
2012-06-19, 03:27:04,VALID,1009.28,VALID,0,VALID,104,VALID,0,VALID,22.9129,VALID,211,VALID,0,
2012-06-19, 03:28:04,VALID,1009.27,VALID,0,VALID,104,VALID,0,VALID,22.9536,VALID,211,VALID,0,
2012-06-19, 03:29:04,VALID,1009.27,VALID,0,VALID,104,VALID,0,VALID,22.9342,VALID,211,VALID,0,
2012-06-19, 03:30:04,VALID,1009.3,VALID,0,VALID,104,VALID,0,VALID,22.9147,VALID,211,VALID,0,
2012-06-19, 03:31:04,VALID,1009.28,VALID,0,VALID,104,VALID,0.112112,VALID,22.9324,VALID,211,VALID,0,
2012-06-19, 03:32:04,VALID,1009.28,VALID,0,VALID,104,VALID,0,VALID,22.9731,VALID,211,VALID,0,
2012-06-19, 03:33:04,VALID,1009.29,VALID,0,VALID,104,VALID,0,VALID,22.9731,VALID,211,VALID,0,
2012-06-19, 03:34:04,VALID,1009.27,VALID,0,VALID,104,VALID,0,VALID,22.9342,VALID,211,VALID,0,
2012-06-19, 03:35:04,VALID,1009.29,VALID,0,VALID,104,VALID,0,VALID,22.8952,VALID,211,VALID,0,
2012-06-19, 03:36:04,VALID,1009.26,VALID,0,VALID,104,VALID,0,VALID,22.8562,VALID,211,VALID,0,
2012-06-19, 03:37:04,VALID,1009.27,VALID,0,VALID,104,VALID,0,VALID,22.8368,VALID,211,VALID,0,
2012-06-19, 03:38:04,VALID,1009.26,VALID,0,VALID,104,VALID,0,VALID,22.7783,VALID,211,VALID,0,
2012-06-19, 03:39:04,VALID,1009.23,VALID,0,VALID,104,VALID,0,VALID,22.7588,VALID,211,VALID,0,
2012-06-19, 03:40:04,VALID,1009.25,VALID,0,VALID,104,VALID,0,VALID,22.7199,VALID,211,VALID,0,
2012-06-19, 03:41:04,VALID,1009.27,VALID,0,VALID,104,VALID,0,VALID,22.6987,VALID,211,VALID,0,
2012-06-19, 03:42:04,VALID,1009.27,VALID,0,VALID,104,VALID,0,VALID,22.7199,VALID,211,VALID,0,
2012-06-19, 03:43:04,VALID,1009.28,VALID,0,VALID,104,VALID,0,VALID,22.6792,VALID,211,VALID,0,
2012-06-19, 03:44:04,VALID,1009.28,VALID,0,VALID,104,VALID,0,VALID,22.7004,VALID,211,VALID,0,
2012-06-19, 03:45:04,VALID,1009.26,VALID,0,VALID,104,VALID,0,VALID,22.6792,VALID,211,VALID,0,
2012-06-19, 03:46:04,VALID,1009.26,VALID,0,VALID,104,VALID,0,VALID,22.6809,VALID,211,VALID,0,
2012-06-19, 03:47:04,VALID,1009.26,VALID,0,VALID,104,VALID,0,VALID,22.6809,VALID,211,VALID,0,
2012-06-19, 03:48:04,VALID,1009.21,VALID,0,VALID,104,VALID,0,VALID,22.6597,VALID,211,VALID,0,
2012-06-19, 03:49:04,VALID,1009.24,VALID,0,VALID,104,VALID,0,VALID,22.6614,VALID,211,VALID,0,
2012-06-19, 03:50:04,VALID,1009.24,VALID,0,VALID,104,VALID,0,VALID,22.7199,VALID,211,VALID,0,
2012-06-19, 03:51:04,VALID,1009.25,VALID,0,VALID,104,VALID,0,VALID,22.7199,VALID,211,VALID,0,
2012-06-19, 03:52:04,VALID,1009.26,VALID,0,VALID,104,VALID,0,VALID,22.7394,VALID,211,VALID,0,
2012-06-19, 03:53:04,VALID,1009.26,VALID,0,VALID,104,VALID,0,VALID,22.7394,VALID,211,VALID,0,
2012-06-19, 03:54:04,VALID,1009.26,VALID,0,VALID,104,VALID,0,VALID,22.7199,VALID,211,VALID,0,
2012-06-19, 03:55:04,VALID,1009.27,VALID,0,VALID,104,VALID,0,VALID,22.6809,VALID,211,VALID,0,
2012-06-19, 03:56:04,VALID,1009.27,VALID,0,VALID,104,VALID,0,VALID,22.6614,VALID,211,VALID,0,
2012-06-19, 03:57:04,VALID,1009.28,VALID,0,VALID,104,VALID,0,VALID,22.642,VALID,211,VALID,0,
2012-06-19, 03:58:04,VALID,1009.3,VALID,0,VALID,104,VALID,0,VALID,22.642,VALID,211,VALID,0,
2012-06-19, 03:59:04,VALID,1009.32,VALID,0,VALID,104,VALID,0,VALID,22.6225,VALID,211,VALID,0,
2012-06-19, 04:00:04,VALID,1009.33,VALID,0,VALID,104,VALID,0,VALID,22.6225,VALID,211,VALID,0,
2012-06-19, 04:01:04,VALID,1009.3,VALID,0,VALID,104,VALID,0,VALID,22.5835,VALID,211,VALID,0,
2012-06-19, 04:02:04,VALID,1009.3,VALID,0,VALID,104,VALID,0,VALID,22.5623,VALID,211,VALID,0,
2012-06-19, 04:03:04,VALID,1009.29,VALID,0,VALID,104,VALID,0,VALID,22.5429,VALID,211,VALID,0,
2012-06-19, 04:04:04,VALID,1009.28,VALID,0,VALID,104,VALID,0,VALID,22.5446,VALID,211,VALID,0,
2012-06-19, 04:05:04,VALID,1009.31,VALID,0,VALID,104,VALID,0,VALID,22.5234,VALID,211,VALID,0,